Retour au catalogue

STARLINK-2379

ActifCommunicationsVLEO
NORAD 47798·PAYLOAD·🇺🇸 United States

Lancé Mar 11, 2021 depuis Cape Canaveral Space Force Station

Loading…

Prochains Passages (prochaines 24 heures)

TLE

FraisSource: CelesTrak SupGP

Époque: Sep 15, 2026, 02:00 UTC

1 47798C 21018M   26258.08381944 -.00016916  00000+0 -54392-3 0  2585
2 47798  53.1587  77.7485 0001289  85.4814 238.9137 15.31714234    19

Suivez STARLINK-2379 en temps réel avec AllMySat

Download on the App Store